sat.trackr.live / text

‹ back to catalog

LEAP-1

NORAD 65321 · 2025-188G

PAYLOAD ACTIVE UNKNOWN

§ Identity

Operator
Country
IND
Launch date
2025-08-26
Launch site
AFWTR
Launch vehicle
Mass (kg)
RCS (m²)

External: N2YO · Heavens-Above · Gunter

§ Orbital elements

Epoch: 2026-09-20T21:52:10.977888Z

Period
96.52 min
Inclination
97.7289°
Eccentricity
0.0001773
Mean motion
14.91879657 rev/d
Perigee alt
590.8 km
Apogee alt
593.3 km
Semi-major
6,970.2 km
B*
1.1991e-4
RAAN
336.4869°
Arg perigee
233.7292°
Mean anomaly
126.3763°
Rev number
5,812

§ Raw data

LEAP-11 65321U 25188G   26263.91123817  .00001156  00000+0  11991-3 0  99982 65321  97.7289 336.4869 0001773 233.7292 126.3763 14.91879657 58127

JSON: /api/v1/satellites/65321 · /tle

For live sub-satellite position, see the globe view (requires WebGL).

§ Visibility from observer

Set your observer location to see the next 7 days of passes ≥ 10°. The values pass through the URL so the page stays shareable.

No JS? Fill the form by hand. The geolocation button needs JavaScript.